Wind_Speed
33 33 33 33 34 35 35 36 36 36 36 37 36 37 38 39 39 40 41 42 42 42 42 42 43 43 43 43 42 42 42 41 42 42 41 41 41 40 40 41 41 41 42 42
34 34 34 34 34 35 35 36 35 36 37 37 37 36 38 39 39 40 41 42 43 43 43 43 43 44 44 44 43 43 43 43 43 43 43 43 42 42 41 42 43 43 43 43
34 34 34 34 34 35 35 35 36 36 37 38 39 38 37 38 38 39 40 41 43 43 43 43 43 44 45 44 44 44 44 45 44 44 44 45 44 44 43 43 43 43 43 43
34 34 34 34 34 35 35 36 36 37 37 38 39 40 37 38 38 39 39 40 42 43 44 44 44 45 45 45 44 44 45 46 46 46 46 46 46 45 44 44 43 42 43 43
34 34 34 34 34 35 35 36 36 36 37 38 38 40 39 38 38 39 39 40 41 43 44 44 45 45 46 46 45 45 46 46 46 47 46 46 46 46 45 44 44 43 43 44
33 33 34 34 34 35 35 36 36 37 37 38 37 39 40 39 39 39 40 40 40 42 43 44 44 45 46 46 46 46 46 47 47 47 47 47 47 46 46 46 45 44 44 44
33 33 33 33 34 35 35 35 36 38 38 39 38 39 40 39 38 39 39 40 40 41 42 44 44 45 46 46 46 46 47 47 47 47 48 48 47 47 46 46 45 45 44 44
33 33 33 34 34 35 34 35 35 38 39 39 38 39 39 39 39 39 39 39 40 40 42 43 44 44 45 45 45 46 46 47 47 48 48 48 48 48 47 46 46 46 46 45
33 33 33 34 34 34 34 34 35 36 38 39 39 39 39 38 38 39 39 39 39 40 41 42 43 44 45 45 45 46 47 47 47 48 48 48 49 49 49 48 48 47 47 46
32 33 33 33 33 33 33 33 34 34 36 38 38 38 38 38 38 38 38 38 39 40 40 41 42 43 44 45 45 46 47 48 48 48 49 49 49 50 50 49 49 48 48 47
32 33 33 33 32 32 32 32 33 34 35 36 38 38 38 38 38 39 38 38 38 39 40 40 40 41 42 43 44 45 46 46 47 48 48 49 49 49 50 49 48 48 48 48
31 32 32 32 32 32 32 32 32 33 35 35 38 39 37 38 38 39 39 38 38 39 39 39 39 40 40 41 42 43 44 44 45 46 47 48 49 49 50 50 49 49 49 50
32 32 32 32 31 31 31 31 32 33 35 35 36 37 36 37 38 38 38 38 38 37 37 37 38 38 39 39 41 42 42 43 44 44 44 46 47 48 50 51 51 50 50 51
31 31 31 32 32 31 31 31 32 33 34 35 35 35 35 36 37 37 36 37 36 36 36 36 37 37 37 38 39 40 40 41 41 42 42 44 45 46 48 50 50 50 51 51
30 30 30 30 31 30 30 31 31 32 33 35 34 34 34 34 34 35 34 34 34 35 36 36 37 36 36 36 37 37 38 39 39 40 41 42 43 45 46 47 48 49 50 50
30 30 30 30 30 31 31 30 31 32 32 33 33 33 33 33 33 33 33 32 32 33 34 35 36 35 33 33 33 34 37 38 39 40 40 41 42 42 43 45 46 46 47 48
30 30 30 30 30 31 31 30 31 32 32 32 32 32 32 32 32 32 33 33 32 32 33 34 35 35 35 34 34 34 36 37 38 39 40 41 41 42 43 43 45 46 46 46
30 31 30 30 31 31 30 31 31 32 31 31 31 31 31 31 32 33 33 32 32 32 32 32 33 34 34 34 34 35 36 37 38 39 40 40 41 42 43 44 44 44 44 44
28 29 30 30 31 32 31 31 32 32 31 31 31 31 32 32 32 32 32 32 31 31 30 30 30 32 33 33 34 35 36 36 37 39 40 41 42 42 43 43 44 45 45 45
28 29 30 31 32 32 31 32 32 33 32 32 32 32 32 32 32 31 31 31 30 30 29 29 28 29 29 31 32 33 34 35 35 36 38 39 41 42 42 41 42 42 43 44
29 29 29 29 30 31 31 31 32 32 33 33 33 33 32 32 32 31 30 29 29 28 28 28 27 27 27 28 29 30 31 32 34 34 36 37 38 39 39 39 40 41 41 41
28 28 28 29 30 31 31 32 32 32 32 32 33 32 32 32 31 30 29 28 28 28 27 27 27 27 27 27 28 29 29 30 32 32 33 34 35 36 37 38 39 39 40 40
27 27 28 29 30 30 31 31 31 31 31 31 31 31 30 30 30 29 28 27 27 27 27 27 27 27 27 28 28 28 29 30 30 30 31 31 32 33 35 35 35 36 37 38
27 27 28 28 28 28 29 29 30 30 30 30 30 30 30 29 29 28 28 27 27 26 26 27 27 27 27 28 28 28 27 28 29 29 30 30 30 31 32 32 33 33 35 36
26 26 26 26 26 27 28 28 28 29 30 30 29 29 29 29 29 29 28 27 26 26 26 26 26 26 26 26 27 27 27 27 27 28 28 29 29 30 30 31 31 32 33 34
24 26 26 26 26 26 27 28 28 28 29 29 29 29 29 29 29 28 28 27 27 26 26 26 25 25 25 26 25 26 26 26 26 27 27 27 28 29 30 30 31 32 32 33
Wind_Direction
274 274 275 275 275 274 274 274 273 273 274 274 273 272 270 270 268 266 265 264 262 261 260 259 258 258 259 259 259 260 260 259 257 257 258 258 258 259 258 257 257 255 254 253
273 274 275 274 273 273 274 273 273 273 274 274 274 273 272 271 269 268 266 265 263 262 260 259 259 259 259 260 260 260 260 260 258 257 258 258 259 259 258 257 256 255 254 253
274 275 274 274 273 273 273 273 274 275 275 274 274 274 273 273 271 270 269 267 264 262 260 260 260 259 259 260 261 260 260 260 260 258 258 258 258 259 258 257 256 255 253 252
274 274 273 273 273 273 273 273 274 275 275 275 275 276 274 275 273 272 271 269 266 263 262 261 260 260 260 260 261 261 261 261 260 259 257 257 258 258 258 256 256 254 253 252
276 275 274 273 273 273 274 274 274 275 276 276 276 278 278 276 275 273 273 272 269 266 264 262 261 260 260 260 261 261 260 260 260 259 257 257 256 257 257 255 254 253 253 252
277 276 275 274 273 273 275 275 275 276 277 278 279 280 279 277 277 276 276 274 272 269 265 263 262 261 260 260 261 260 260 259 259 259 258 256 255 256 256 254 253 252 252 252
277 276 275 275 275 275 276 277 278 279 279 280 280 280 280 279 279 279 278 277 275 271 267 264 263 262 260 260 260 260 259 259 259 259 258 256 255 254 254 254 252 251 251 252
278 277 277 277 277 277 278 278 279 281 282 282 282 282 282 282 280 280 280 278 276 273 270 267 264 262 261 260 259 259 259 258 259 258 257 255 254 253 253 252 251 251 251 251
280 279 278 278 278 278 278 278 280 281 281 282 283 283 282 282 281 281 280 278 277 274 272 269 266 264 262 261 260 260 259 258 258 257 257 255 254 252 252 251 251 250 250 250
280 279 279 278 278 277 278 280 281 282 283 284 284 285 285 284 283 282 282 279 277 275 273 270 267 264 263 261 261 260 259 258 257 257 256 255 254 253 252 252 251 250 250 250
280 279 279 279 278 278 278 279 280 282 282 284 286 286 287 286 285 283 283 280 278 276 274 271 268 266 265 263 261 260 259 258 256 256 255 255 254 253 252 251 251 250 250 250
280 280 280 279 279 279 279 279 281 282 283 284 287 288 288 287 286 284 283 281 279 277 275 272 268 267 267 264 262 261 259 257 256 255 255 254 253 252 251 251 251 251 250 250
280 280 281 281 280 279 280 280 281 283 285 286 288 289 289 289 288 285 284 282 279 277 275 272 269 267 266 265 263 260 259 257 256 256 255 253 252 252 251 251 251 251 251 251
280 279 280 281 283 282 282 282 283 284 286 287 289 290 290 290 289 286 285 283 280 278 275 273 270 268 267 267 264 260 258 256 256 255 253 252 251 252 252 252 252 252 252 251
279 279 279 280 280 280 282 283 283 285 287 288 290 291 291 290 290 288 286 284 281 280 276 273 270 268 267 266 263 258 255 254 254 254 254 253 252 253 254 253 252 251 251 252
279 279 280 280 280 280 282 284 285 286 289 290 290 291 291 291 291 289 287 286 284 283 279 274 271 267 265 265 262 260 257 255 255 255 254 254 253 254 254 253 252 252 252 252
280 280 280 280 280 280 281 285 287 289 290 291 291 292 292 291 292 292 289 287 286 284 281 277 272 268 266 265 262 262 260 257 256 255 255 255 254 254 254 254 254 254 253 254
280 280 280 281 280 280 284 286 287 289 291 291 291 292 293 293 294 294 292 289 287 286 283 281 276 271 267 265 263 264 262 259 257 256 256 256 256 257 256 256 256 256 256 256
280 279 280 282 282 282 285 286 288 290 291 290 292 293 292 293 294 294 291 289 288 285 282 279 277 274 269 266 265 265 263 261 259 258 258 258 258 258 258 257 257 257 257 257
279 279 281 284 284 285 288 288 290 291 290 291 292 292 292 292 294 293 290 287 287 284 281 278 276 276 272 269 268 266 263 262 262 261 261 260 259 259 259 259 257 257 258 257
281 281 283 284 285 287 289 290 291 292 294 293 293 294 293 293 294 294 290 288 287 284 280 277 276 274 272 272 270 269 268 266 265 265 264 263 261 261 260 259 257 257 257 256
282 283 284 285 286 288 289 289 291 293 293 294 294 294 294 293 293 295 293 290 288 285 282 278 275 272 271 271 271 270 270 270 268 267 267 265 264 262 261 259 258 257 256 257
281 283 285 286 287 288 288 288 290 291 293 294 295 295 294 293 292 293 293 291 289 287 284 279 275 272 270 269 271 271 271 270 269 268 267 266 265 263 262 261 259 258 258 258
282 283 285 287 287 288 288 288 290 291 293 294 295 295 293 291 291 291 291 290 289 287 285 281 278 274 270 269 270 270 271 270 268 267 267 266 266 264 263 262 261 260 259 258
284 283 285 286 288 288 289 290 291 292 293 294 295 296 294 292 291 290 290 290 290 288 286 283 280 276 272 269 268 269 270 269 268 268 267 267 265 263 262 262 261 260 259 259
285 285 285 287 288 289 290 290 291 293 294 294 295 296 295 293 292 291 290 289 289 288 286 285 282 279 276 272 271 270 271 271 269 268 267 267 267 264 262 261 260 261 260 259
Height
5714 5714 5713 5712 5710 5709 5707 5706 5705 5704 5703 5701 5700 5700 5700 5699 5698 5698 5697 5697 5698 5699 5700 5701 5702 5703 5704 5706 5707 5709 5710 5711 5712 5713 5714 5715 5716 5716 5717 5718 5719 5720 5721 5723
5705 5704 5703 5701 5699 5698 5697 5696 5694 5694 5692 5690 5690 5690 5688 5687 5686 5685 5685 5685 5685 5686 5687 5688 5689 5691 5692 5694 5695 5697 5698 5698 5699 5701 5702 5703 5704 5705 5706 5706 5707 5708 5710 5712
5694 5694 5692 5691 5689 5688 5687 5685 5684 5683 5681 5680 5679 5679 5678 5677 5675 5673 5673 5672 5672 5673 5674 5676 5677 5678 5680 5681 5683 5684 5685 5686 5687 5688 5690 5691 5692 5693 5694 5695 5696 5697 5699 5701
5684 5683 5682 5680 5679 5677 5677 5675 5674 5672 5670 5669 5668 5666 5667 5666 5664 5662 5661 5660 5660 5660 5661 5662 5664 5666 5667 5669 5670 5671 5672 5673 5674 5675 5677 5678 5679 5681 5682 5683 5685 5686 5688 5690
5674 5673 5672 5671 5670 5668 5666 5665 5663 5662 5660 5658 5657 5654 5655 5653 5652 5651 5649 5648 5647 5647 5648 5649 5651 5652 5654 5655 5656 5657 5658 5659 5661 5662 5663 5665 5667 5668 5670 5671 5673 5675 5677 5679
5664 5663 5661 5660 5659 5658 5656 5655 5653 5651 5649 5648 5647 5644 5643 5642 5641 5639 5637 5636 5634 5634 5634 5635 5637 5638 5640 5641 5642 5643 5645 5646 5647 5648 5649 5651 5654 5655 5657 5659 5661 5663 5665 5668
5655 5653 5652 5651 5649 5648 5647 5645 5642 5639 5638 5637 5636 5633 5632 5631 5629 5626 5625 5623 5622 5621 5621 5622 5623 5624 5626 5627 5628 5629 5631 5632 5633 5634 5636 5638 5640 5642 5644 5646 5648 5651 5653 5656
5644 5644 5643 5641 5640 5638 5637 5635 5633 5630 5628 5626 5625 5622 5622 5620 5617 5615 5613 5611 5609 5608 5608 5608 5609 5610 5611 5613 5614 5615 5616 5618 5619 5620 5622 5624 5626 5629 5631 5634 5636 5638 5641 5643
5634 5634 5633 5631 5630 5629 5626 5625 5623 5620 5617 5615 5613 5612 5611 5608 5606 5604 5601 5598 5597 5596 5595 5595 5595 5596 5597 5598 5600 5601 5602 5603 5605 5606 5608 5610 5613 5615 5618 5620 5623 5625 5628 5631
5625 5624 5623 5622 5620 5619 5617 5615 5613 5610 5607 5604 5603 5602 5600 5597 5595 5592 5589 5587 5585 5584 5583 5582 5582 5582 5583 5583 5584 5585 5586 5588 5590 5592 5594 5596 5599 5601 5604 5607 5609 5612 5615 5618
5615 5615 5614 5612 5611 5609 5608 5606 5603 5600 5598 5595 5592 5594 5590 5587 5583 5581 5578 5576 5574 5572 5571 5570 5569 5569 5569 5569 5569 5570 5571 5573 5575 5577 5580 5582 5585 5587 5590 5593 5596 5599 5601 5604
5606 5605 5604 5603 5601 5599 5598 5596 5594 5592 5589 5586 5583 5585 5580 5576 5572 5570 5567 5565 5562 5561 5559 5558 5557 5556 5556 5555 5556 5556 5557 5559 5561 5563 5566 5568 5571 5573 5576 5579 5582 5585 5588 5590
5597 5596 5595 5593 5594 5591 5589 5587 5585 5582 5580 5577 5574 5575 5570 5566 5562 5559 5556 5553 5551 5550 5548 5546 5545 5544 5543 5543 5543 5543 5544 5546 5548 5550 5552 5554 5557 5559 5562 5565 5568 5571 5574 5576
5588 5587 5587 5586 5583 5581 5580 5578 5576 5573 5570 5568 5566 5564 5561 5555 5552 5549 5546 5543 5541 5539 5538 5536 5534 5533 5532 5532 5531 5531 5532 5534 5536 5537 5539 5541 5544 5546 5549 5551 5554 5556 5559 5562
5579 5578 5577 5576 5574 5572 5571 5569 5567 5564 5561 5558 5556 5553 5550 5546 5542 5539 5536 5534 5532 5530 5527 5525 5524 5522 5522 5521 5520 5520 5521 5523 5524 5526 5528 5530 5532 5534 5536 5538 5540 5542 5545 5548
5570 5569 5568 5567 5565 5563 5562 5560 5558 5555 5552 5549 5546 5544 5541 5537 5533 5530 5527 5525 5522 5520 5517 5515 5513 5512 5512 5511 5510 5511 5512 5513 5514 5515 5517 5518 5520 5522 5523 5525 5527 5529 5531 5533
5561 5560 5559 5558 5556 5554 5553 5552 5549 5547 5544 5541 5537 5536 5532 5528 5525 5521 5518 5516 5513 5510 5508 5506 5504 5503 5502 5501 5501 5501 5501 5502 5503 5504 5506 5507 5508 5510 5511 5513 5514 5516 5518 5520
5553 5551 5549 5548 5547 5545 5547 5543 5540 5537 5535 5532 5529 5526 5523 5520 5516 5513 5509 5506 5504 5501 5499 5496 5494 5493 5493 5492 5492 5491 5492 5492 5493 5493 5495 5496 5497 5498 5499 5500 5502 5504 5505 5508
5544 5542 5540 5539 5537 5536 5537 5534 5530 5528 5526 5523 5520 5517 5514 5511 5508 5505 5501 5498 5495 5492 5490 5488 5486 5484 5484 5483 5482 5482 5482 5482 5482 5483 5484 5485 5485 5486 5487 5488 5490 5491 5493 5495
5536 5534 5533 5530 5528 5527 5528 5525 5521 5519 5517 5515 5511 5508 5505 5502 5499 5497 5493 5489 5487 5484 5482 5479 5478 5476 5475 5474 5474 5473 5473 5473 5473 5473 5473 5473 5474 5474 5475 5476 5478 5479 5481 5482
5527 5525 5524 5522 5519 5518 5518 5515 5512 5511 5509 5505 5502 5499 5496 5493 5490 5488 5484 5481 5478 5476 5474 5471 5470 5468 5467 5466 5466 5465 5465 5464 5464 5464 5463 5463 5463 5463 5464 5465 5466 5467 5469 5470
5518 5517 5515 5513 5511 5512 5509 5506 5504 5502 5498 5495 5492 5489 5487 5484 5481 5478 5475 5473 5470 5468 5466 5464 5462 5461 5460 5459 5458 5458 5457 5456 5455 5455 5454 5453 5453 5453 5453 5454 5455 5456 5457 5458
5510 5509 5507 5506 5506 5502 5499 5497 5494 5492 5490 5487 5484 5481 5478 5475 5473 5470 5467 5465 5462 5460 5458 5456 5454 5453 5452 5451 5451 5450 5449 5448 5447 5446 5445 5445 5444 5443 5443 5444 5444 5445 5446 5447
5502 5500 5498 5497 5495 5493 5490 5488 5486 5483 5481 5478 5475 5473 5470 5467 5465 5462 5460 5457 5455 5452 5450 5448 5446 5445 5444 5443 5442 5441 5441 5440 5439 5438 5437 5436 5435 5435 5434 5434 5435 5435 5436 5437
5494 5491 5489 5488 5487 5484 5482 5480 5477 5475 5472 5470 5467 5464 5461 5459 5456 5454 5451 5449 5447 5444 5442 5440 5438 5437 5436 5435 5434 5433 5432 5431 5430 5430 5428 5427 5427 5426 5426 5426 5426 5426 5426 5426
5486 5484 5482 5481 5479 5476 5474 5472 5469 5467 5464 5462 5459 5456 5453 5450 5448 5445 5443 5441 5439 5436 5434 5433 5431 5429 5428 5427 5426 5425 5424 5423 5422 5421 5420 5419 5419 5418 5418 5418 5418 5417 5418 5418